Pineville, WV

1:17 PM EST on February 20, 2018 (GMT -0500)
Pineville

Weather History for KI16 - November, 2013

Change the Weather History Date:

Sunday, November 24, 2013

  Actual Average (KBKW) Record (KBKW)
Temperature  
Mean Temperature 24 °F -  
Max Temperature 30 °F 49 °F 73 °F (1973)
Min Temperature 17 °F 31 °F 5 °F (1970)
Degree Days  
Heating Degree Days 42    
Moisture  
Dew Point 11 °F    
Average Humidity 60    
Maximum Humidity 91    
Minimum Humidity 36    
Precipitation  
Precipitation 0.00 in - - ()
Sea Level Pressure  
Sea Level Pressure 30.49 in    
Wind  
Wind Speed - (North)    
Max Wind Speed -    
Max Gust Speed -    
Visibility 10 miles    
Events Snow    
Averages and records for this station are not official NWS values.
T = Trace of Precipitation, MM = Missing Value Source: NWS Daily Summary

Daily Weather History Graph

Daily Weather History Graph

Search for Another Location

Airport or City:

Trip Planner

Search our weather history database for the weather conditions in past years. The results will help you decide how hot, cold, wet, or windy it might be!

Date:

Astronomy

Nov. 24, 2013 Rise Set
Actual Time 7:15 AM EST 5:10 PM EST
Civil Twilight 6:47 AM EST 5:38 PM EST
Nautical Twilight 6:15 AM EST 6:10 PM EST
Astronomical Twilight 5:43 AM EST 6:41 PM EST
Moon 11:30 PM EST (11/24) 12:06 PM EST (11/24)
Length of Visible Light 10h 51m
Length of Day
9h 54m
Waning Gibbous, 61% of the Moon is Illuminated
Nov 24
Waning Gibbous
Nov 25
Last Quarter
Dec 2
New
Dec 9
First Quarter
Dec 17
Full

Hourly Weather History & Observations

Time (EST) Temp. Dew Point Humidity Pressure Visibility Wind Dir Wind Speed Gust Speed Precip Events Conditions
12:15 AM 28.9 °F 18.7 °F 66% 30.38 in 10.0 mi North - - N/A   Overcast
12:35 AM 28.4 °F 16.3 °F 61% 30.38 in 10.0 mi North - - N/A Snow Light Snow
12:55 AM 27.5 °F 18.1 °F 68% 30.38 in 10.0 mi North - - N/A   Overcast
1:15 AM 27.5 °F 18.0 °F 67% 30.38 in 10.0 mi North - - N/A   Overcast
1:35 AM 27.3 °F 17.6 °F 67% 30.38 in 10.0 mi North - - N/A   Overcast
1:55 AM 26.6 °F 16.5 °F 66% 30.39 in 10.0 mi North - - N/A   Overcast
2:15 AM 26.2 °F 14.9 °F 62% 30.39 in 10.0 mi North - - N/A   Overcast
2:35 AM 25.3 °F 10.9 °F 54% 30.41 in 10.0 mi North - - N/A   Mostly Cloudy
2:55 AM 25.3 °F 11.7 °F 56% 30.42 in 10.0 mi North - - N/A   Overcast
3:15 AM 24.8 °F 12.7 °F 60% 30.42 in 10.0 mi North - - N/A   Overcast
3:35 AM 25.0 °F 13.1 °F 61% 30.42 in 10.0 mi North - - N/A   Overcast
3:55 AM 24.8 °F 14.4 °F 65% 30.42 in 10.0 mi North - - N/A   Overcast
4:15 AM 24.6 °F 15.3 °F 68% 30.42 in 7.0 mi North - - N/A Snow Light Snow
4:35 AM 23.9 °F 16.3 °F 73% 30.43 in 7.0 mi North - - N/A Snow Light Snow
4:55 AM 23.4 °F 15.4 °F 72% 30.44 in 10.0 mi North - - N/A   Mostly Cloudy
5:15 AM 23.0 °F 13.5 °F 67% 30.45 in 10.0 mi North - - N/A   Mostly Cloudy
5:35 AM 22.1 °F 12.7 °F 67% 30.45 in 10.0 mi North - - N/A   Mostly Cloudy
5:55 AM 21.4 °F 10.8 °F 64% 30.47 in 10.0 mi North - - N/A   Mostly Cloudy
6:15 AM 21.0 °F 10.4 °F 64% 30.47 in 10.0 mi North - - N/A   Mostly Cloudy
6:35 AM 20.5 °F 10.2 °F 65% 30.48 in 10.0 mi North - - N/A   Scattered Clouds
6:55 AM 19.9 °F 8.6 °F 61% 30.49 in 10.0 mi North - - N/A   Scattered Clouds
7:15 AM 19.4 °F 8.2 °F 62% 30.51 in 10.0 mi North - - N/A   Mostly Cloudy
7:35 AM 19.2 °F 8.6 °F 63% 30.51 in 10.0 mi North - - N/A   Mostly Cloudy
7:55 AM 19.2 °F 9.3 °F 65% 30.53 in 10.0 mi North - - N/A   Scattered Clouds
8:15 AM 20.1 °F 9.3 °F 63% 30.54 in 10.0 mi North - - N/A   Scattered Clouds
8:35 AM 20.8 °F 9.3 °F 61% 30.54 in 10.0 mi North - - N/A   Clear
8:55 AM 21.4 °F 7.7 °F 56% 30.54 in 10.0 mi North - - N/A   Clear
9:15 AM 22.1 °F 8.1 °F 55% 30.55 in 10.0 mi North - - N/A   Clear
9:35 AM 22.6 °F 7.2 °F 52% 30.56 in 10.0 mi North - - N/A   Clear
9:55 AM 24.4 °F 8.8 °F 51% 30.56 in 10.0 mi North - - N/A   Clear
10:15 AM 24.4 °F 6.6 °F 47% 30.58 in 10.0 mi North - - N/A   Clear
10:35 AM 24.3 °F 6.8 °F 47% 30.57 in 10.0 mi North - - N/A   Clear
10:55 AM 25.2 °F 6.8 °F 46% 30.58 in 10.0 mi North - - N/A   Clear
11:15 AM 26.8 °F 8.6 °F 46% 30.56 in 10.0 mi North - - N/A   Clear
11:35 AM 26.2 °F 6.6 °F 43% 30.55 in 10.0 mi North - - N/A   Clear
11:55 AM 27.1 °F 7.3 °F 43% 30.54 in 10.0 mi North - - N/A   Clear
12:15 PM 27.7 °F 8.4 °F 44% 30.54 in 10.0 mi North - - N/A   Clear
12:35 PM 28.6 °F 7.3 °F 41% 30.52 in 10.0 mi North - - N/A   Clear
12:55 PM 28.4 °F 8.1 °F 42% 30.51 in 10.0 mi North - - N/A   Clear
1:15 PM 28.9 °F 7.3 °F 40% 30.51 in 10.0 mi North - - N/A   Clear
1:35 PM 28.9 °F 7.0 °F 40% 30.50 in 10.0 mi North - - N/A   Clear
1:55 PM 28.9 °F 5.9 °F 38% 30.50 in 10.0 mi North - - N/A   Clear
2:15 PM 29.7 °F 6.4 °F 38% 30.51 in 10.0 mi North - - N/A   Clear
2:35 PM 29.8 °F 6.4 °F 37% 30.50 in 10.0 mi North - - N/A   Clear
2:55 PM 29.8 °F 5.7 °F 36% 30.50 in 10.0 mi North - - N/A   Clear
3:15 PM 30.0 °F 5.7 °F 36% 30.50 in 10.0 mi North - - N/A   Clear
3:35 PM 28.9 °F 5.2 °F 37% 30.50 in 10.0 mi North - - N/A   Clear
3:55 PM 27.9 °F 6.1 °F 40% 30.50 in 10.0 mi North - - N/A   Clear
4:15 PM 27.5 °F 6.1 °F 40% 30.50 in 10.0 mi North - - N/A   Clear
4:35 PM 27.0 °F 5.7 °F 41% 30.51 in 10.0 mi North - - N/A   Clear
4:55 PM 26.4 °F 5.9 °F 42% 30.51 in 10.0 mi North - - N/A   Clear
5:15 PM 25.5 °F 8.4 °F 48% 30.51 in 10.0 mi North - - N/A   Clear
5:35 PM 24.8 °F 7.3 °F 48% 30.51 in 10.0 mi North - - N/A   Clear
5:55 PM 24.8 °F 7.9 °F 49% 30.51 in 10.0 mi North - - N/A   Clear
6:15 PM 23.0 °F 11.3 °F 61% 30.51 in 10.0 mi North - - N/A   Clear
6:35 PM 22.6 °F 11.7 °F 63% 30.51 in 10.0 mi North - - N/A   Clear
6:55 PM 21.6 °F 14.0 °F 73% 30.52 in 10.0 mi North - - N/A   Clear
7:15 PM 21.0 °F 13.6 °F 73% 30.52 in 10.0 mi North - - N/A   Clear
7:35 PM 20.8 °F 13.8 °F 74% 30.53 in 10.0 mi North - - N/A   Clear
7:55 PM 20.3 °F 14.7 °F 79% 30.52 in 10.0 mi North - - N/A   Clear
8:15 PM 20.1 °F 15.1 °F 81% 30.52 in 10.0 mi North - - N/A   Clear
8:35 PM 19.9 °F 14.7 °F 80% 30.52 in 10.0 mi North - - N/A   Clear
8:55 PM 19.8 °F 15.1 °F 82% 30.52 in 10.0 mi North - - N/A   Clear
9:15 PM 19.8 °F 14.9 °F 81% 30.52 in 10.0 mi North - - N/A   Clear
9:35 PM 19.2 °F 15.4 °F 85% 30.52 in 10.0 mi North - - N/A   Clear
9:55 PM 19.0 °F 15.4 °F 86% 30.52 in 10.0 mi North - - N/A   Clear
10:15 PM 18.5 °F 14.9 °F 86% 30.52 in 10.0 mi North - - N/A   Clear
10:35 PM 18.5 °F 14.9 °F 86% 30.52 in 10.0 mi North - - N/A   Clear
10:55 PM 18.3 °F 15.4 °F 89% 30.52 in 10.0 mi North - - N/A   Clear
11:15 PM 18.0 °F 15.4 °F 90% 30.52 in 10.0 mi North - - N/A   Clear
11:35 PM 17.6 °F 14.9 °F 89% 30.52 in 10.0 mi North - - N/A   Clear
11:55 PM 17.6 °F 15.3 °F 91% 30.53 in 10.0 mi North - - N/A   Clear